Date String (YYYY-MM-DD hh:mm:ss) UTC,Instrument flags,Ambient pressure (hPa),Sample flow (lpm),Bypass flow (lpm),Sample temperature (°C),Ambient temperature (°C),ASC tube jacket temperature (°C),LED temperature (°C),Box temperature (°C),Sample RH (%),Span deviation,Mass concentration (μg/m³),Mass concentration (μg/m³),Mass concentration (μg/m³)
DateTimeUTC,F1_M11,P_M11,Q1_M11,Q2_M11,T1_M11,T2_M11,T3_M11,T4_M11,T5_M11,U1_M11,ZSPAN_M11,X0_M11,X2_M11,X1_M11
2022-04-16 14:00:00,,0826.9,4.99,0.00,22.9,22.8,00.0,31.7,24.8,11.5,0000.0,0009.34,0003.99,0003.30
2022-04-16 14:01:00,,0826.9,5.01,0.00,22.9,22.6,00.0,31.7,24.8,11.5,0000.0,0008.92,0004.00,0003.31
2022-04-16 14:02:00,,0826.9,4.98,0.00,22.9,22.5,00.0,31.7,24.8,11.6,0000.0,0009.04,0004.06,0003.31
2022-04-16 14:03:00,,0826.9,5.00,0.00,22.9,22.4,00.0,31.7,24.8,11.6,0000.0,0009.26,0004.13,0003.32
2022-04-16 14:04:00,,0826.9,5.01,0.00,22.9,22.3,00.0,31.7,24.7,11.5,0000.0,0009.45,0004.14,0003.33
2022-04-16 14:05:00,,0826.9,5.00,0.00,22.9,22.3,00.0,31.7,24.7,11.6,0000.0,0009.22,0004.14,0003.33
2022-04-16 14:06:00,,0826.8,4.99,0.00,22.9,22.2,00.0,31.7,24.7,11.5,0000.0,0008.88,0004.17,0003.34
2022-04-16 14:07:00,,0826.8,5.00,0.00,22.8,22.1,00.0,31.7,24.6,11.5,0000.0,0008.93,0004.20,0003.34
2022-04-16 14:08:00,,0826.9,5.00,0.00,22.8,22.1,00.0,31.7,24.6,11.6,0000.0,0008.99,0004.25,0003.34
2022-04-16 14:09:00,,0826.9,5.01,0.00,22.8,22.1,00.0,31.7,24.6,11.6,0000.0,0009.09,0004.28,0003.35
2022-04-16 14:10:00,,0826.9,5.00,0.00,22.8,22.0,00.0,31.7,24.6,11.7,0000.0,0008.94,0004.26,0003.36
2022-04-16 14:11:00,,0826.9,5.00,0.00,22.8,22.0,00.0,31.7,24.6,11.6,0000.0,0008.97,0004.23,0003.35
2022-04-16 14:12:00,,0826.8,5.00,0.00,22.8,22.0,00.0,31.7,24.5,11.6,0000.0,0009.00,0004.20,0003.35
2022-04-16 14:13:00,,0826.9,5.00,0.00,22.7,21.9,00.0,31.7,24.5,11.7,0000.0,0009.09,0004.21,0003.36
2022-04-16 14:14:00,,0826.8,5.00,0.00,22.7,21.9,00.0,31.7,24.5,11.7,0000.0,0008.96,0004.19,0003.35
2022-04-16 14:15:00,,0827.0,5.00,0.00,22.7,21.9,00.0,31.7,24.5,11.7,0000.0,0008.72,0004.17,0003.35
2022-04-16 14:16:00,,0826.9,5.00,0.00,22.7,21.8,00.0,31.7,24.4,11.6,0000.0,0008.60,0004.16,0003.35
2022-04-16 14:17:00,,0826.8,4.99,0.00,22.7,21.8,00.0,31.7,24.4,11.6,0000.0,0009.31,0004.15,0003.35
2022-04-16 14:18:00,,0826.9,5.00,0.00,22.7,22.0,00.0,31.7,24.4,11.6,0000.0,0009.27,0004.15,0003.35
2022-04-16 14:19:00,,0827.1,5.01,0.00,22.8,22.8,00.0,31.7,24.6,11.6,0000.0,0010.24,0004.14,0003.36
2022-04-16 14:20:00,,0826.8,5.00,0.00,22.9,23.3,00.0,31.7,24.8,11.5,0000.0,0010.30,0004.12,0003.36
2022-04-16 14:21:00,,0826.8,5.00,0.00,22.9,23.2,00.0,31.8,24.8,11.5,0000.0,0011.27,0004.16,0003.35
2022-04-16 14:22:00,,0826.7,4.99,0.00,22.9,23.0,00.0,31.8,24.8,11.6,0000.0,0011.33,0004.19,0003.36
2022-04-16 14:23:00,,0826.7,4.99,0.00,22.9,22.8,00.0,31.8,24.8,11.7,0000.0,0011.37,0004.22,0003.38
2022-04-16 14:24:00,,0826.7,5.01,0.00,22.9,22.7,00.0,31.8,24.8,11.7,0000.0,0011.21,0004.20,0003.39
2022-04-16 14:25:00,,0826.7,4.98,0.00,22.9,22.6,00.0,31.8,24.8,11.7,0000.0,0011.61,0004.15,0003.40
2022-04-16 14:26:00,,0826.7,5.01,0.00,22.9,22.5,00.0,31.8,24.8,11.7,0000.0,0012.17,0004.14,0003.42
2022-04-16 14:27:00,,0826.7,5.00,0.00,22.9,22.4,00.0,31.8,24.7,11.9,0000.0,0013.30,0004.15,0003.44
2022-04-16 14:28:00,,0826.7,5.00,0.00,22.9,22.3,00.0,31.8,24.8,12.0,0000.0,0013.38,0004.17,0003.45
2022-04-16 14:29:00,,0826.8,4.99,0.00,22.9,22.3,00.0,31.8,24.7,11.8,0000.0,0013.65,0004.15,0003.46
2022-04-16 14:30:00,,0826.7,5.01,0.00,22.9,22.2,00.0,31.8,24.7,11.8,0000.0,0013.77,0004.18,0003.47
2022-04-16 14:31:00,,0826.7,5.00,0.00,22.9,22.2,00.0,31.8,24.7,11.8,0000.0,0014.15,0004.19,0003.47
2022-04-16 14:32:00,,0826.7,5.00,0.00,22.9,22.1,00.0,31.8,24.7,11.8,0000.0,0014.22,0004.21,0003.49
2022-04-16 14:33:00,,0826.7,5.01,0.00,22.9,22.0,00.0,31.8,24.7,11.9,0000.0,0014.15,0004.22,0003.49
2022-04-16 14:34:00,,0826.7,4.99,0.00,22.8,22.0,00.0,31.8,24.6,11.9,0000.0,0014.41,0004.22,0003.50
2022-04-16 14:35:00,,0826.6,5.01,0.00,22.8,22.0,00.0,31.8,24.6,12.0,0000.0,0015.52,0004.26,0003.50
2022-04-16 14:36:00,,0826.7,5.00,0.00,22.8,22.0,00.0,31.8,24.6,12.2,0000.0,0015.27,0004.26,0003.50
2022-04-16 14:37:00,,0826.7,4.98,0.00,22.8,22.0,00.0,31.8,24.6,12.1,0000.0,0014.87,0004.28,0003.50
2022-04-16 14:38:00,,0826.7,5.00,0.00,22.8,22.0,00.0,31.8,24.6,12.0,0000.0,0014.02,0004.30,0003.49
2022-04-16 14:39:00,,0826.7,5.00,0.00,22.8,22.0,00.0,31.8,24.6,12.1,0000.0,0013.77,0004.33,0003.49
2022-04-16 14:40:00,,0826.7,5.00,0.00,22.8,22.0,00.0,31.7,24.6,12.2,0000.0,0013.78,0004.39,0003.50
2022-04-16 14:41:00,,0826.6,5.01,0.00,22.8,22.0,00.0,31.7,24.6,12.0,0000.0,0013.14,0004.41,0003.52
2022-04-16 14:42:00,,0826.6,5.00,0.00,22.8,22.0,00.0,31.7,24.6,12.2,0000.0,0012.87,0004.44,0003.54
2022-04-16 14:43:00,,0826.5,5.00,0.00,22.8,22.0,00.0,31.7,24.6,12.2,0000.0,0012.15,0004.48,0003.56
2022-04-16 14:44:00,,0826.6,5.00,0.00,22.8,22.0,00.0,31.7,24.6,12.0,0000.0,0012.22,0004.49,0003.59
2022-04-16 14:45:00,,0826.6,4.99,0.00,22.8,22.0,00.0,31.7,24.6,12.1,0000.0,0011.79,0004.54,0003.62
2022-04-16 14:46:00,,0826.6,5.01,0.00,22.8,22.0,00.0,31.7,24.6,12.1,0000.0,0010.80,0004.56,0003.65
2022-04-16 14:47:00,,0826.6,5.01,0.00,22.8,22.0,00.0,31.7,24.6,12.3,0000.0,0011.22,0004.67,0003.69
2022-04-16 14:48:00,,0826.6,5.00,0.00,22.8,22.0,00.0,31.7,24.6,12.2,0000.0,0011.37,0004.73,0003.73
2022-04-16 14:49:00,,0826.6,4.99,0.00,22.8,22.0,00.0,31.7,24.6,12.1,0000.0,0012.13,0004.78,0003.77
2022-04-16 14:50:00,,0826.5,4.99,0.00,22.8,22.0,00.0,31.7,24.6,12.2,0000.0,0012.86,0004.82,0003.82
2022-04-16 14:51:00,,0826.5,5.00,0.00,22.8,22.0,00.0,31.7,24.6,12.3,0000.0,0013.08,0004.83,0003.87
2022-04-16 14:52:00,,0826.5,5.01,0.00,22.8,22.0,00.0,31.7,24.6,12.2,0000.0,0013.05,0004.84,0003.91
2022-04-16 14:53:00,,0826.5,5.01,0.00,22.8,22.0,00.0,31.7,24.6,12.2,0000.0,0013.01,0004.86,0003.97
2022-04-16 14:54:00,,0826.5,5.01,0.00,22.8,22.0,00.0,31.7,24.6,12.2,0000.0,0012.82,0004.86,0003.99
2022-04-16 14:55:00,,0826.5,5.00,0.00,22.8,22.0,00.0,31.7,24.6,12.2,0000.0,0012.91,0004.95,0004.04
2022-04-16 14:56:00,,0826.5,5.00,0.00,22.8,22.0,00.0,31.7,24.6,12.2,0000.0,0013.02,0004.98,0004.07
2022-04-16 14:57:00,,0826.5,5.00,0.00,22.8,22.1,00.0,31.7,24.6,12.2,0000.0,0013.08,0005.01,0004.10
2022-04-16 14:58:00,,0826.5,4.99,0.00,22.8,22.1,00.0,31.7,24.6,12.3,0000.0,0012.72,0005.00,0004.14
2022-04-16 14:59:00,,0826.5,5.00,0.00,22.8,22.1,00.0,31.7,24.7,12.3,0000.0,0012.69,0005.05,0004.18
